Location: Cheissoux
(45.8333°N, 1.6500°E)
Time: 01:39:05
(UTC+00:00)

Daily predictions for brighter satellites

Satellite Brightness Start Highest point End
(mag) Time Altitude Azimuth Time Altitude Azimuth Time Altitude Azimuth
USA 215 4.3 03:20:56 10° E 03:25:43 38° NE 03:25:43 38° NE
Cosmos 1943 Rocket 2.7 04:06:38 56° E 04:06:38 56° E 04:11:34 10° NNE
CZ-2C R/B 4.3 04:04:16 10° SE 04:09:02 32° ENE 04:13:24 12° N
CENTAUR R/B 2.4 04:16:08 82° SE 04:16:08 82° SE 04:23:10 10° NE
Cosmos 2297 3.8 04:21:06 76° E 04:21:06 76° E 04:26:37 10° NNE
NOSS 3-2 (A) 3.4 04:27:49 64° N 04:27:49 64° N 04:33:37 10° NE
Cosmos 2278 Rocket 4.2 04:33:50 15° N 04:33:50 15° N 04:35:05 10° N
NOSS 3-2 (C) 3.3 04:33:35 60° SSW 04:34:40 80° SE 04:41:06 10° NE
Envisat 4.0 04:31:15 10° NNE 04:36:10 46° E 04:41:01 10° S
Cosmos 2098 Rocket 4.4 04:37:54 10° SSE 04:41:27 37° E 04:45:51 10° NNE
Meteor 2-3 Rocket 3.6 04:36:11 10° S 04:41:50 89° W 04:47:36 10° N
Cosmos 968 Rocket 3.5 04:42:38 32° S 04:45:03 79° ESE 04:50:12 10° NNE
Genesis I 3.8 04:49:24 53° SSE 04:49:24 53° SSE 04:52:34 10° SSE
Cosmos 921 Rocket 3.1 04:50:35 65° NNE 04:51:06 74° ENE 04:55:33 10° SSE
Meteor 1-26 Rocket 4.2 04:53:51 26° NNW 04:57:19 74° W 05:03:03 10° S
Cosmos 1812 3.1 04:56:57 51° NNE 04:57:40 63° E 05:01:27 10° SSE
Gbstr 26 Del rocket 4.5 05:01:04 22° S 05:01:04 22° S 05:03:15 10° SSE
USA 238 DEB 3.5 05:00:10 38° WSW 05:02:47 67° NW 05:09:39 10° NE
USA 238 3.5 05:00:14 38° WSW 05:02:53 67° NW 05:09:45 10° NE
Cosmos 1151 Rocket 3.3 05:01:35 20° N 05:04:32 69° E 05:08:53 10° SSE
Cosmos 2344 3.7 05:03:34 38° W 05:05:48 49° NW 05:13:34 10° NE
Cosmos 1766 Rocket 4.1 05:01:53 10° S 05:06:08 57° E 05:10:22 10° NNE
USA 215 3.2 05:03:02 10° SE 05:09:34 87° NE 05:13:03 31° NW
Kosmos-917 4.4 05:12:30 40° N 05:12:30 40° N 05:16:19 10° NE
Cosmos 1782 3.9 05:15:55 29° SSW 05:15:55 29° SSW 05:18:08 10° SSW
Meteor 1-31 Rocket 2.8 05:10:42 10° NNE 05:14:37 81° ESE 05:18:31 10° S
Cosmos 2279 Rocket 4.0 05:08:56 10° N 05:15:10 80° E 05:21:21 10° S
Cosmos 1328 Rocket 3.9 05:12:49 10° N 05:17:12 66° E 05:21:32 10° SSE
SJ-12 3.8 05:15:55 10° N 05:20:02 64° WNW 05:24:07 10° SSW
Cosmos 2369 Rocket 2.0 05:14:55 10° SSW 05:20:30 81° WNW 05:26:09 10° NNE
FALCON 9 DEB 3.6 05:21:07 45° N 05:21:07 45° N 05:24:02 10° NE
Cosmos 1862 3.3 05:18:27 10° S 05:22:23 82° E 05:26:22 10° N
COSMO-SKYMED 1 2.5 05:19:26 10° S 05:23:43 60° W 05:25:48 29° NNW
H-2A R/B 2.8 05:24:24 10° N 05:28:00 48° WNW 05:31:36 10° SSW
Cosmos 1634 Rocket 4.1 05:24:06 10° NNW 05:30:10 52° W 05:36:10 10° SSW
Cosmos 836 Rocket 4.4 05:27:51 20° NNW 05:31:27 68° WSW 05:36:37 10° S
CZ-4B R/B 3.8 05:33:55 10° NNE 05:37:21 44° E 05:40:47 10° S
Tsikada Rocket 4.5 05:32:09 10° SW 05:37:44 35° WNW 05:43:26 10° N
CZ-4B R/B 4.0 05:37:20 10° ESE 05:39:51 20° ENE 05:42:20 10° NNE
MOS 1-B Rocket 4.4 05:34:10 10° SSW 05:40:03 38° W 05:44:43 13° NNW
Cosmos 1408 Rocket 4.0 05:37:15 10° S 05:41:29 64° E 05:45:46 10° NNE
Cosmos 1656 Rocket 3.5 05:38:48 10° SSW 05:44:11 72° WNW 05:49:39 10° NNE
Cosmos 1503 Rocket 4.0 05:39:24 10° SSW 05:44:39 90° W 05:50:01 10° NNE
CZ-4C R/B 2.8 05:41:37 10° S 05:44:42 53° WSW 05:46:01 29° NW
DMSP B5D2-2 4.1 05:39:54 10° SSE 05:45:07 83° ENE 05:50:22 10° NNW
CZ-2C R/B 3.1 05:44:04 10° SSW 05:49:12 40° W 05:54:18 10° NNW
Cosmos 1943 Rocket 3.1 05:48:15 22° W 05:50:08 26° NW 05:54:51 10° N
Cosmos 1486 Rocket 4.2 05:47:16 10° SW 05:52:23 48° WNW 05:57:31 10° NNE
FALCON 9 DEB 4.2 05:56:51 20° NNW 05:57:24 21° N 05:59:43 10° NE
SL-8 R/B 3.7 05:54:22 21° WNW 05:57:31 80° SSW 06:02:17 10° ESE
Cosmos 1515 Rocket 3.5 05:53:08 10° N 05:57:32 85° W 06:01:52 10° S
Meteor 2-15 4.4 05:52:47 10° NNW 05:58:50 73° W 06:04:51 10° S
Cosmos 2180 Rocket 4.5 05:54:21 10° NNW 06:00:27 62° W 06:06:28 10° S
Meteor 1-27 Rocket 3.9 05:54:53 10° N 06:00:33 81° E 06:06:18 10° SSE
FALCON 9 DEB 4.4 06:03:16 17° NNW 06:04:06 19° N 06:06:17 10° NE
COSMOS 2487 4.3 06:01:28 10° N 06:04:24 27° ENE 06:07:20 10° ESE
Cosmos 773 Rocket 4.0 05:59:39 10° NNW 06:04:55 87° WSW 06:10:06 10° SSE
SJ 16-02 2.1 06:01:43 10° S 06:06:01 57° ESE 06:10:18 10° NNE
FALCON 9 DEB 4.5 06:05:15 16° NNW 06:06:12 19° N 06:08:22 10° NE
CENTAUR R/B 3.5 06:03:21 16° W 06:07:41 31° NNW 06:14:12 10° NNE
NOAA 11 4.2 06:03:32 10° N 06:08:56 62° WNW 06:14:19 10° SSW
Alouette 2 Rocket 3.7 06:07:02 10° N 06:10:55 60° ENE 06:14:25 10° SSE
Meteor 2-19 Rocket 4.4 06:06:26 10° SSW 06:12:29 74° W 06:18:34 10° N
NOAA 12 4.1 06:08:51 10° NNE 06:14:09 84° WNW 06:19:24 10° SSW
Cosmos 1340 Rocket 3.0 06:10:22 10° S 06:14:17 73° E 06:18:16 10° NNE
Envisat 3.9 06:10:47 10° N 06:14:55 25° WNW 06:19:01 10° WSW
Cosmos 1500 Rocket 3.6 06:13:15 10° S 06:17:43 88° E 06:22:13 10° N
SL-27 R/B 2.4 06:14:34 10° NNW 06:18:09 71° WSW 06:21:40 10° SSE
Cosmos 1939 Rocket 2.7 06:16:44 10° N 06:20:41 78° WNW 06:24:33 10° SSW
Cosmos 2098 Rocket 4.3 06:19:44 10° WSW 06:22:46 20° WNW 06:26:20 10° NNW
FALCON 9 DEB 4.4 06:21:30 13° NW 06:23:11 20° N 06:25:24 10° NE
NOSS 3-2 (C) 4.4 06:21:15 10° W 06:26:21 29° NNW 06:32:10 10° NNE
Cosmos 1805 Rocket 4.0 06:25:00 10° S 06:29:21 69° E 06:33:43 10° NNE
Okean O Rocket 4.0 06:27:14 10° NE 06:31:04 28° E 06:34:51 10° SSE
Sich 1 3.8 06:27:01 10° S 06:31:12 55° E 06:35:24 10° NNE
H-2A R/B 2.3 06:27:45 10° S 06:31:51 48° W 06:36:05 10° NNW
Cosmos 2026 Rocket 4.4 06:25:47 10° S 06:32:05 72° E 06:38:22 10° NNE
Meteor 1-25 Rocket 4.5 06:28:01 10° S 06:33:39 77° E 06:39:14 10° NNE
ATLAS 3B R/B 3.1 06:27:41 10° SSW 06:34:08 69° ESE 06:40:55 10° NE
Cosmos 1174 3.1 06:34:38 10° SSW 06:37:36 83° ESE 06:40:43 10° NE
Cosmos 1500 4.1 06:34:09 10° S 06:37:52 54° E 06:41:36 10° NNE
ATLAS 5 CENTAUR R/B 1.4 06:34:15 10° SSW 06:38:03 81° SE 06:42:22 10° NE
ADEOS 4.3 06:34:31 10° N 06:39:03 31° WNW 06:43:35 10° SW
Cosmos 158 Rocket 4.1 06:35:09 10° NNW 06:40:18 86° ENE 06:45:32 10° SSE
